When you browse on this site, cookies collect data to enhance your experience and personalize the content and advertising you see.
Visit our Privacy Policy to learn more. By continuing to use the site, you agree to this use of cookies and data.
  • In Spain
  • List of Countries
  • For 7 days
  • Water Temperature
  • Satellite Maps
  • Weather Map
  • Weather Widgets
  • user-avatar
    Login

    Hourly Weather Vlasova Sloboda

    Today, 22 May, Wednesday

    Time Temperature Precipitation Wind Pressure Humidity
    00:00 +14°C° 0 mm 2 mps 742 mmHg 93%
    01:00 +14°C° 0 mm 2 mps 742 mmHg 94%
    02:00 +14°C° 0 mm 1 mps 741 mmHg 93%
    03:00 +14°C° 0 mm 2 mps 741 mmHg 93%
    04:00 +14°C° 0 mm 2 mps 741 mmHg 93%
    05:00 +14°C° 0 mm 2 mps 741 mmHg 93%
    06:00 +16°C° 0 mm 2 mps 741 mmHg 88%
    07:00 +17°C° 0 mm 2 mps 741 mmHg 84%
    08:00 +18°C° 0 mm 2 mps 741 mmHg 77%
    09:00 +20°C° 0 mm 2 mps 741 mmHg 74%
    10:00 +21°C° 0 mm 2 mps 741 mmHg 70%
    11:00 +23°C° 0 mm 2 mps 740 mmHg 66%
    12:00 +23°C° 0.4 mm 2 mps 740 mmHg 65%
    13:00 +24°C° 0.4 mm 2 mps 740 mmHg 63%
    14:00 +24°C° 0.4 mm 2 mps 739 mmHg 61%
    15:00 +24°C° 0.4 mm 2 mps 739 mmHg 62%
    16:00 +24°C° 0.4 mm 2 mps 739 mmHg 63%
    17:00 +24°C° 0.4 mm 2 mps 739 mmHg 65%
    18:00 +22°C° 0.1 mm 1 mps 739 mmHg 70%
    19:00 +20°C° 0.1 mm 1 mps 739 mmHg 76%
    20:00 +17°C° 0.1 mm 0 mps 738 mmHg 81%
    21:00 +18°C° 0 mm 1 mps 738 mmHg 82%
    22:00 +16°C° 0 mm 1 mps 738 mmHg 83%
    23:00 +16°C° 0 mm 1 mps 738 mmHg 84%

    Tomorrow, 23 May, Thursday

    Time Temperature Precipitation Wind Pressure Humidity
    00:00 +15°C° 0 mm 1 mps 738 mmHg 84%
    01:00 +15°C° 0 mm 1 mps 738 mmHg 84%
    02:00 +15°C° 0 mm 2 mps 738 mmHg 85%
    03:00 +15°C° 0 mm 2 mps 738 mmHg 85%
    04:00 +15°C° 0 mm 2 mps 738 mmHg 85%
    05:00 +15°C° 0 mm 2 mps 738 mmHg 85%
    06:00 +16°C° 0 mm 2 mps 738 mmHg 81%
    07:00 +18°C° 0 mm 2 mps 738 mmHg 77%
    08:00 +20°C° 0 mm 2 mps 738 mmHg 73%
    09:00 +21°C° 0 mm 3 mps 738 mmHg 68%
    10:00 +24°C° 0 mm 3 mps 738 mmHg 64%
    11:00 +25°C° 0 mm 3 mps 738 mmHg 59%
    12:00 +25°C° 0.2 mm 4 mps 738 mmHg 59%
    13:00 +25°C° 0.2 mm 4 mps 738 mmHg 59%
    14:00 +25°C° 0.2 mm 4 mps 737 mmHg 60%
    15:00 +25°C° 0.3 mm 4 mps 737 mmHg 63%
    16:00 +24°C° 0.3 mm 3 mps 737 mmHg 67%
    17:00 +24°C° 0.3 mm 3 mps 737 mmHg 71%
    18:00 +23°C° 0.1 mm 2 mps 737 mmHg 76%
    19:00 +20°C° 0.1 mm 2 mps 737 mmHg 81%
    20:00 +18°C° 0.1 mm 2 mps 737 mmHg 86%
    21:00 +18°C° 0.1 mm 2 mps 737 mmHg 87%
    22:00 +18°C° 0.1 mm 1 mps 738 mmHg 89%
    23:00 +16°C° 0.1 mm 1 mps 738 mmHg 90%

    Day after tomorrow, 24 May, Friday

    Time Temperature Precipitation Wind Pressure Humidity
    00:00 +16°C° 0 mm 1 mps 738 mmHg 91%
    01:00 +15°C° 0 mm 1 mps 738 mmHg 92%
    02:00 +15°C° 0 mm 1 mps 738 mmHg 93%
    03:00 +15°C° 0 mm 2 mps 738 mmHg 94%
    04:00 +15°C° 0 mm 2 mps 738 mmHg 95%
    05:00 +15°C° 0 mm 2 mps 739 mmHg 96%
    06:00 +16°C° 0 mm 2 mps 739 mmHg 93%
    07:00 +17°C° 0 mm 3 mps 739 mmHg 90%
    08:00 +18°C° 0 mm 3 mps 739 mmHg 87%
    09:00 +18°C° 0 mm 3 mps 739 mmHg 85%
    10:00 +19°C° 0 mm 3 mps 739 mmHg 83%
    11:00 +19°C° 0 mm 3 mps 739 mmHg 82%
    12:00 +19°C° 0 mm 3 mps 739 mmHg 81%
    13:00 +20°C° 0 mm 3 mps 739 mmHg 80%
    14:00 +20°C° 0 mm 3 mps 739 mmHg 79%
    15:00 +20°C° 0.1 mm 3 mps 739 mmHg 78%
    16:00 +21°C° 0.1 mm 3 mps 739 mmHg 78%
    17:00 +21°C° 0.1 mm 3 mps 738 mmHg 77%
    18:00 +20°C° 0.2 mm 3 mps 738 mmHg 82%
    19:00 +19°C° 0.2 mm 3 mps 738 mmHg 87%
    20:00 +17°C° 0.2 mm 3 mps 738 mmHg 92%
    21:00 +17°C° 0.6 mm 3 mps 738 mmHg 94%
    22:00 +16°C° 0.6 mm 3 mps 738 mmHg 95%
    23:00 +16°C° 0.6 mm 3 mps 738 mmHg 96%

    25 May, Saturday

    Time Temperature Precipitation Wind Pressure Humidity
    00:00 +14°C° 0.8 mm 3 mps 738 mmHg 97%
    01:00 +14°C° 0.8 mm 3 mps 737 mmHg 97%
    02:00 +15°C° 0.8 mm 2 mps 737 mmHg 98%
    03:00 +15°C° 0.2 mm 2 mps 737 mmHg 98%
    04:00 +15°C° 0.2 mm 2 mps 737 mmHg 97%
    05:00 +15°C° 0.2 mm 2 mps 737 mmHg 97%
    06:00 +16°C° 0.1 mm 2 mps 737 mmHg 94%
    07:00 +18°C° 0.1 mm 1 mps 737 mmHg 91%
    08:00 +19°C° 0.1 mm 1 mps 737 mmHg 88%
    09:00 +20°C° 1.1 mm 1 mps 736 mmHg 86%
    10:00 +20°C° 1.1 mm 1 mps 736 mmHg 83%
    11:00 +21°C° 1.1 mm 1 mps 736 mmHg 81%
    12:00 +21°C° 0.8 mm 1 mps 736 mmHg 82%
    13:00 +21°C° 0.8 mm 1 mps 736 mmHg 82%
    14:00 +20°C° 0.8 mm 1 mps 735 mmHg 83%
    15:00 +20°C° 0.9 mm 1 mps 735 mmHg 85%
    16:00 +19°C° 0.9 mm 2 mps 735 mmHg 86%
    17:00 +18°C° 0.9 mm 2 mps 735 mmHg 88%
    18:00 +17°C° 0.1 mm 2 mps 735 mmHg 89%
    19:00 +17°C° 0.1 mm 2 mps 735 mmHg 90%
    20:00 +16°C° 0.1 mm 2 mps 735 mmHg 92%
    21:00 +15°C° 0 mm 2 mps 735 mmHg 91%
    22:00 +13°C° 0 mm 3 mps 735 mmHg 90%
    23:00 +12°C° 0 mm 3 mps 735 mmHg 90%

    26 May, Sunday

    Time Temperature Precipitation Wind Pressure Humidity
    00:00 +11°C° 0 mm 3 mps 735 mmHg 92%
    01:00 +11°C° 0 mm 3 mps 736 mmHg 94%
    02:00 +10°C° 0 mm 3 mps 736 mmHg 95%
    03:00 +10°C° 0 mm 3 mps 736 mmHg 95%
    04:00 +10°C° 0 mm 3 mps 736 mmHg 95%
    05:00 +9°C° 0 mm 3 mps 737 mmHg 95%
    06:00 +10°C° 0 mm 3 mps 737 mmHg 90%
    07:00 +12°C° 0 mm 3 mps 737 mmHg 85%
    08:00 +13°C° 0 mm 3 mps 737 mmHg 80%
    09:00 +14°C° 0 mm 4 mps 737 mmHg 74%
    10:00 +15°C° 0 mm 4 mps 737 mmHg 69%
    11:00 +17°C° 0 mm 4 mps 737 mmHg 63%
    12:00 +18°C° 0 mm 4 mps 737 mmHg 62%
    13:00 +17°C° 0 mm 5 mps 737 mmHg 61%
    14:00 +19°C° 0 mm 5 mps 736 mmHg 60%
    15:00 +17°C° 0.1 mm 5 mps 736 mmHg 64%
    16:00 +16°C° 0.1 mm 5 mps 736 mmHg 69%
    17:00 +15°C° 0.1 mm 4 mps 736 mmHg 74%
    18:00 +14°C° 0 mm 3 mps 736 mmHg 80%
    19:00 +13°C° 0 mm 2 mps 736 mmHg 86%
    20:00 +12°C° 0 mm 1 mps 736 mmHg 92%
    21:00 +12°C° 0.2 mm 2 mps 735 mmHg 92%
    22:00 +11°C° 0.2 mm 3 mps 735 mmHg 92%
    23:00 +11°C° 0.2 mm 3 mps 735 mmHg 92%

    27 May, Monday

    Time Temperature Precipitation Wind Pressure Humidity
    00:00 +11°C° 0.1 mm 3 mps 735 mmHg 93%
    01:00 +10°C° 0.1 mm 3 mps 735 mmHg 94%
    02:00 +9°C° 0.1 mm 3 mps 735 mmHg 94%
    03:00 +8°C° 0 mm 4 mps 735 mmHg 94%
    04:00 +7°C° 0 mm 4 mps 735 mmHg 94%
    05:00 +7°C° 0 mm 5 mps 735 mmHg 94%
    06:00 +8°C° 0 mm 5 mps 736 mmHg 88%
    07:00 +8°C° 0 mm 6 mps 736 mmHg 82%
    08:00 +9°C° 0 mm 7 mps 736 mmHg 76%
    09:00 +9°C° 0.1 mm 7 mps 737 mmHg 75%
    10:00 +10°C° 0.1 mm 7 mps 737 mmHg 74%
    11:00 +10°C° 0.1 mm 7 mps 737 mmHg 73%
    12:00 +10°C° 0 mm 7 mps 738 mmHg 74%
    13:00 +10°C° 0 mm 7 mps 738 mmHg 76%
    14:00 +10°C° 0 mm 6 mps 738 mmHg 77%
    15:00 +11°C° 0 mm 6 mps 739 mmHg 75%
    16:00 +11°C° 0 mm 6 mps 739 mmHg 74%
    17:00 +13°C° 0 mm 6 mps 740 mmHg 72%
    18:00 +11°C° 0 mm 6 mps 740 mmHg 76%
    19:00 +10°C° 0 mm 5 mps 740 mmHg 80%
    20:00 +10°C° 0 mm 4 mps 741 mmHg 83%
    21:00 +9°C° 0 mm 3 mps 741 mmHg 87%
    22:00 +8°C° 0 mm 3 mps 742 mmHg 90%
    23:00 +7°C° 0 mm 3 mps 742 mmHg 93%
    Show more